{"data":{"norad_id":44741,"epoch":"2026-05-24T12:23:15.115488Z","epoch_age_seconds":130947,"freshness":"FRESH","line1":"1 44741U 19074AE  26144.51614717  .00040372  00000+0  36845-3 0  9994","line2":"2 44741  53.0420 177.5404 0002930 327.9971  32.0866 15.67482891360584","mean_motion":15.67482891,"eccentricity":0.000293,"inclination_deg":53.042,"raan_deg":177.5404,"arg_perigee_deg":327.9971,"mean_anomaly_deg":32.0866,"bstar":0.00036845,"rev_number":36058,"period_min":91.867031421397,"perigee_km":364.13136496682,"apogee_km":368.08349220197,"semimajor_km":6744.2444285844,"source":"CELESTRAK","updated_at":"2026-05-25T13:38:16.372711Z"}}